Home > Time Zones > World Clock > Weather > Norway > Oslo > Past weeks

Flag for Norway Weather past 2 weeks in Oslo, Norway

Now
30 °F

Chilly.


Feels Like: 30 °F
Forecast: 11 / 19 °F
Wind: 1 mph from South

Location: Oslo-Blindern

Current Time: Jan 26, 2015 at 11:59:59 PM

Latest Report: Jan 26, 2015 at 11:00 PM


Visibility: N/A

Pressure: 29.70 "Hg

Humidity: 98%

Dew point: 29 °F

Location of OsloLocation

Historic Weather in Oslo — Graph

°F

Oslo temperature yesterday

Maximum temperature yesterday: 28 °F (at 11:00 PM)
Minimum temperature yesterday: 18 °F (at 8:00 AM)
Average temperature yesterday: 24 °F

Past Weeks' High & Low Weather Summary

 TemperatureHumidityPressure
High42 °F (Jan 16, 2:00 PM)100% (Jan 12, 7:00 PM)30.27 "Hg (Jan 12, 7:00 PM)
Low10 °F (Jan 23, 7:00 AM)70% (Jan 13, 7:00 PM)28.82 "Hg (Jan 16, 7:00 AM)
Average30 °F89%29.65 "Hg
* Reported Jan 11 9:00 PM — Jan 26 9:00 PM, Oslo, Weather by CustomWeather, © 2014

Note: Actual official high and low records may vary slightly from our data, if they occured in-between our weather recording intervals... More about our weather records

Advertising

Oslo weather history for previous 24 hours

 ConditionsComfort  
Time TempWeatherWind HumidityBarometerVisibility
9:00 PM
Jan 26
31 °FChilly.1 mph99%29.67 "HgN/A
8:00 PM32 °FChilly.1 mph97%29.67 "HgN/A
7:00 PM33 °FFog.1 mph99%29.65 "Hg9 mi
6:00 PM34 °FChilly.1 mph100%29.64 "HgN/A
5:00 PM35 °FChilly.2 mph99%29.62 "HgN/A
4:00 PM37 °FFog.1 mph99%29.62 "Hg1 mi
3:00 PM37 °FChilly.1 mph99%29.62 "HgN/A
2:00 PM38 °FChilly.1 mph100%29.63 "HgN/A
1:00 PM38 °FFog.No wind99%29.64 "Hg0 mi
12:00 PM38 °FChilly.1 mph99%29.66 "HgN/A
11:00 AM38 °FChilly.2 mph99%29.67 "HgN/A
10:00 AM38 °FLight rain. Low clouds.1 mph100%29.69 "Hg7 mi
9:00 AM38 °FChilly.1 mph99%29.71 "HgN/A
8:00 AM37 °FChilly.2 mph99%29.73 "HgN/A
7:00 AM37 °FLight rain. Low clouds.2 mph99%29.75 "Hg9 mi
6:00 AM36 °FChilly.2 mph99%29.77 "HgN/A
5:00 AM36 °FChilly.2 mph99%29.79 "HgN/A
4:00 AM34 °FFog.1 mph99%29.82 "Hg1 mi
3:00 AM33 °FChilly.1 mph99%29.86 "HgN/A
2:00 AM32 °FChilly.1 mph99%29.90 "HgN/A
1:00 AM31 °FFog.2 mph99%29.93 "Hg1 mi
12:00 AM29 °FChilly.1 mph100%29.96 "HgN/A
11:00 PM
Jan 25
28 °FChilly.1 mph99%30.00 "HgN/A
Weather by CustomWeather, © 2014

See weather overviewHow to use our weather pages